Sibu, Malaysia

6:03 PM +08 on September 20, 2017 (GMT +0800)
Sibu

Weather History for WBGS - October, 2012

Change the Weather History Date:

Sunday, October 28, 2012

  Actual Average Record
Temperature  
Mean Temperature 81 °F -  
Max Temperature 90 °F 89 °F - ()
Min Temperature 72 °F 72 °F - ()
Cooling Degree Days 16    
Growing Degree Days 31 (Base 50)    
Moisture  
Dew Point 76 °F    
Average Humidity 89    
Maximum Humidity 100    
Minimum Humidity 67    
Precipitation  
Precipitation 0.01 in 0.38 in - ()
Sea Level Pressure  
Sea Level Pressure 29.80 in    
Wind  
Wind Speed 3 mph ()    
Max Wind Speed 14 mph    
Max Gust Speed -    
Visibility 7.4 miles    
Events Rain    
T = Trace of Precipitation, MM = Missing Value Source: Averaged Metar Reports

Daily Weather History Graph

Daily Weather History Graph

Search for Another Location

Airport or City:

Trip Planner

Search our weather history database for the weather conditions in past years. The results will help you decide how hot, cold, wet, or windy it might be!

Date:

Astronomy

Oct. 28, 2012 Rise Set
Actual Time 6:15 AM +08 6:17 PM +08
Civil Twilight 5:53 AM +08 6:38 PM +08
Nautical Twilight 5:29 AM +08 7:03 PM +08
Astronomical Twilight 5:04 AM +08 7:28 PM +08
Moon 5:09 PM +08 (10/28) 4:49 AM +08 (10/28)
Length of Visible Light 12h 44m
Length of Day
12h 02m
Waxing Gibbous, 97% of the Moon is Illuminated
Oct 28
Waxing Gibbous
Oct 30
Full
Nov 7
Last Quarter
Nov 14
New
Nov 20
First Quarter

Hourly Weather History & Observations

Time (+08) Temp. Heat Index Dew Point Humidity Pressure Visibility Wind Dir Wind Speed Gust Speed Precip Events Conditions
12:00 AM 75.2 °F - 75.2 °F 100% 29.83 in 6.2 mi SSE 1.2 mph - N/A Rain Light Rain
1:00 AM 75.2 °F - 75.2 °F 100% 29.83 in 6.2 mi Calm Calm - N/A Rain Light Rain
2:00 AM 73 °F - 72 °F 95% 29.85 in 8 mi ESE 13.8 mph - - Rain Light Rain
2:00 AM 73.4 °F - 71.6 °F 94% 29.83 in 6.2 mi ESE 13.8 mph - N/A Rain Light Rain
3:00 AM 71.6 °F - 71.6 °F 100% 29.83 in 5.0 mi NNE 2.3 mph - N/A Rain Light Rain
4:00 AM 73.4 °F - 71.6 °F 94% 29.80 in 5.0 mi NE 4.6 mph - N/A Rain Light Rain
5:00 AM 73 °F - 72 °F 97% 29.80 in 5 mi NE 1.2 mph - - Rain Light Rain
5:00 AM 73.4 °F - 71.6 °F 94% 29.80 in 5.0 mi NE 1.2 mph - N/A Rain Light Rain
6:00 AM 73.4 °F - 71.6 °F 94% 29.80 in 6.2 mi NNW 2.3 mph - N/A Rain Light Rain
7:00 AM 73.4 °F - 73.4 °F 100% 29.86 in 6.2 mi Calm Calm - N/A Rain Light Rain
8:00 AM 74 °F - 73 °F 97% 29.88 in 12 mi East 3.5 mph - - Rain Light Rain
8:00 AM 73.4 °F - 73.4 °F 100% 29.86 in 6.2 mi East 3.5 mph - N/A   Mostly Cloudy
9:00 AM 77.0 °F - 75.2 °F 94% 29.89 in 6.2 mi ESE 4.6 mph - N/A   Mostly Cloudy
10:00 AM 78.8 °F - 75.2 °F 89% 29.89 in 6.2 mi SSE 2.3 mph - N/A   Mostly Cloudy
11:00 AM 80 °F - 76 °F 85% 29.88 in 19 mi SW 3.5 mph - -   Partly Cloudy
11:00 AM 80.6 °F 87.1 °F 77.0 °F 89% 29.86 in 6.2 mi SW 3.5 mph - N/A   Mostly Cloudy
12:00 PM 84.2 °F 94.1 °F 77.0 °F 79% 29.83 in 6.2 mi SSE 3.5 mph - N/A   Mostly Cloudy
1:00 PM 86.0 °F 96.9 °F 77.0 °F 74% 29.80 in 6.2 mi North 2.3 mph - N/A   Mostly Cloudy
2:00 PM 88 °F - 78 °F 67% 29.76 in 19 mi SW 2.3 mph - -   Partly Cloudy
2:00 PM 87.8 °F 102.5 °F 78.8 °F 75% 29.74 in 6.2 mi SW 2.3 mph - N/A   Mostly Cloudy
3:00 PM 86.0 °F 101.9 °F 80.6 °F 84% 29.71 in 6.2 mi North 5.8 mph - N/A Rain Light Rain Showers
4:00 PM 86.0 °F 99.3 °F 78.8 °F 79% 29.71 in 6.2 mi WSW 3.5 mph - N/A   Mostly Cloudy
5:00 PM 88 °F - 79 °F 68% 29.72 in 11 mi WSW 3.5 mph - -   Partly Cloudy
5:00 PM 87.8 °F 102.5 °F 78.8 °F 75% 29.71 in 6.2 mi WSW 3.5 mph - N/A   Mostly Cloudy
6:00 PM 84.2 °F 96.1 °F 78.8 °F 84% 29.71 in 6.2 mi Calm Calm - N/A   Mostly Cloudy
7:00 PM 82.4 °F 92.4 °F 78.8 °F 89% 29.74 in 6.2 mi North 2.3 mph - N/A   Mostly Cloudy
8:00 PM 81 °F - 77 °F 84% 29.78 in 9 mi North 5.8 mph - -   Partly Cloudy
8:00 PM 80.6 °F 87.1 °F 77.0 °F 89% 29.77 in 6.2 mi North 5.8 mph - N/A   Mostly Cloudy
9:00 PM 78.8 °F - 77.0 °F 94% 29.80 in 6.2 mi NNE 3.5 mph - N/A   Mostly Cloudy
10:00 PM 78.8 °F - 77.0 °F 94% 29.80 in 6.2 mi North 2.3 mph - N/A   Mostly Cloudy
11:00 PM 79 °F - 76 °F 90% 29.83 in 9 mi ENE 2.3 mph - -   Partly Cloudy
11:00 PM 78.8 °F - 77.0 °F 94% 29.83 in 6.2 mi ENE 2.3 mph - N/A   Mostly Cloudy